Voltar ao catálogo

COSMOS 862

LostMilitarHEO
NORAD 9495·PAYLOAD·🇷🇺 Russia

Lançado Oct 22, 1976 de Plesetsk Cosmodrome

Loading…

Próximas Passagens (próximas 24 horas)

TLE

ObsoletoSource: Space-Track

Época: Mar 21, 2026, 06:44 UTC

1 09495U 76105A   26080.28068858  .00000641  00000-0  00000-0 0  9998
2 09495  70.5006  42.1102 6268675 183.7336 167.5610  2.00630682239892

Acompanhe COSMOS 862 em tempo real com AllMySat

Download on the App Store